TimePDT,TemperatureF,Dew PointF,Humidity,Sea Level PressureIn,VisibilityMPH,Wind Direction,Wind SpeedMPH,Gust SpeedMPH,PrecipitationIn,Events,Conditions,WindDirDegrees,DateUTC
12:53 AM,54.0,46.9,77,30.03,10.0,Calm,Calm,-,N/A,,Clear,0,2013-03-30 07:53:00
1:53 AM,53.1,46.9,80,30.03,10.0,Calm,Calm,-,N/A,,Clear,0,2013-03-30 08:53:00
2:53 AM,53.1,48.0,83,30.02,10.0,ENE,4.6,-,N/A,,Clear,70,2013-03-30 09:53:00
3:53 AM,54.0,48.0,80,30.02,10.0,Calm,Calm,-,N/A,,Clear,0,2013-03-30 10:53:00
4:53 AM,54.0,48.9,83,30.01,10.0,Calm,Calm,-,N/A,,Clear,0,2013-03-30 11:53:00
5:53 AM,55.0,48.9,80,30.01,10.0,Calm,Calm,-,N/A,,Partly Cloudy,0,2013-03-30 12:53:00
6:53 AM,53.1,48.9,86,30.02,10.0,Calm,Calm,-,N/A,,Clear,0,2013-03-30 13:53:00
7:53 AM,57.0,51.1,81,30.04,10.0,Calm,Calm,-,N/A,,Clear,0,2013-03-30 14:53:00
8:53 AM,59.0,52.0,78,30.05,10.0,SW,3.5,-,N/A,,Scattered Clouds,230,2013-03-30 15:53:00
9:53 AM,64.0,53.1,67,30.04,10.0,SW,3.5,-,N/A,,Partly Cloudy,230,2013-03-30 16:53:00
10:53 AM,64.9,52.0,63,30.05,10.0,SW,6.9,-,N/A,,Clear,220,2013-03-30 17:53:00
11:53 AM,66.9,51.1,57,30.05,10.0,SSW,6.9,-,N/A,,Clear,210,2013-03-30 18:53:00
12:53 PM,69.1,51.1,53,30.04,10.0,SSW,5.8,-,N/A,,Clear,200,2013-03-30 19:53:00
1:53 PM,70.0,53.1,55,30.03,10.0,SSW,9.2,-,N/A,,Scattered Clouds,210,2013-03-30 20:53:00
2:53 PM,70.0,48.9,47,30.00,10.0,SW,8.1,17.3,N/A,,Scattered Clouds,220,2013-03-30 21:53:00
3:53 PM,68.0,48.9,50,29.99,10.0,WSW,10.4,-,N/A,,Partly Cloudy,240,2013-03-30 22:53:00
4:53 PM,66.9,46.9,49,29.99,10.0,West,8.1,-,N/A,,Overcast,260,2013-03-30 23:53:00
5:53 PM,64.9,50.0,58,29.99,10.0,SSW,6.9,-,N/A,,Mostly Cloudy,210,2013-03-31 00:53:00
6:53 PM,62.1,54.0,75,29.98,10.0,WSW,11.5,-,0.00,Rain,Light Rain,240,2013-03-31 01:53:00
7:53 PM,63.0,50.0,63,29.99,10.0,WSW,8.1,-,0.00,,Overcast,250,2013-03-31 02:53:00
8:53 PM,63.0,46.9,56,29.99,10.0,WSW,8.1,19.6,N/A,,Overcast,250,2013-03-31 03:53:00
9:53 PM,62.1,48.9,62,30.00,10.0,SW,8.1,-,N/A,,Overcast,220,2013-03-31 04:53:00
10:53 PM,59.0,52.0,78,30.00,10.0,SW,6.9,-,0.01,Rain,Light Rain,230,2013-03-31 05:53:00
11:53 PM,57.0,53.1,87,30.00,10.0,Calm,Calm,-,0.03,Rain,Light Rain,0,2013-03-31 06:53:00